Year,Month,Day,Hour,Minute,Value (Times are PST for temperature in C)
2011,08,11,00,00,10.40
2011,08,11,00,01,10.40
2011,08,11,00,02,10.40
2011,08,11,00,03,10.40
2011,08,11,00,04,10.30
2011,08,11,00,05,10.30
2011,08,11,00,06,10.30
2011,08,11,00,07,10.30
2011,08,11,00,08,10.30
2011,08,11,00,09,10.30
2011,08,11,00,10,10.20
2011,08,11,00,11,10.20
2011,08,11,00,12,10.20
2011,08,11,00,13,10.20
2011,08,11,00,14,10.20
2011,08,11,00,15,10.20
2011,08,11,00,16,10.20
2011,08,11,00,17,10.10
2011,08,11,00,18,10.10
2011,08,11,00,19,10.10
2011,08,11,00,20,10.10
2011,08,11,00,21,10.10
2011,08,11,00,22,10.10
2011,08,11,00,23,10.10
2011,08,11,00,24,10.10
2011,08,11,00,25,10.10
2011,08,11,00,26,10.10
2011,08,11,00,27,10.10
2011,08,11,00,28,10.10
2011,08,11,00,29,10.10
2011,08,11,00,30,10.10
2011,08,11,00,31,10.10
2011,08,11,00,32,10.00
2011,08,11,00,33,9.90
2011,08,11,00,34,9.90
2011,08,11,00,35,9.90
2011,08,11,00,36,9.90
2011,08,11,00,37,10.00
2011,08,11,00,38,10.10
2011,08,11,00,39,10.10
2011,08,11,00,40,10.10
2011,08,11,00,41,10.10
2011,08,11,00,42,10.10
2011,08,11,00,43,10.10
2011,08,11,00,44,10.10
2011,08,11,00,45,10.10
2011,08,11,00,46,10.10
2011,08,11,00,47,10.10
2011,08,11,00,48,10.10
2011,08,11,00,49,10.10
2011,08,11,00,50,10.10
2011,08,11,00,51,9.90
2011,08,11,00,52,9.90
2011,08,11,00,53,9.90
2011,08,11,00,54,9.90
2011,08,11,00,55,9.90
2011,08,11,00,56,9.90
2011,08,11,00,57,9.90
2011,08,11,00,58,9.90
2011,08,11,00,59,9.90
2011,08,11,01,00,9.90
2011,08,11,01,01,9.90
2011,08,11,01,02,9.90
2011,08,11,01,03,9.90
2011,08,11,01,04,9.90
2011,08,11,01,05,9.90
2011,08,11,01,06,9.90
2011,08,11,01,07,9.90
2011,08,11,01,08,9.90
2011,08,11,01,09,9.90
2011,08,11,01,10,9.90
2011,08,11,01,11,9.90
2011,08,11,01,12,9.80
2011,08,11,01,13,9.80
2011,08,11,01,14,9.80
2011,08,11,01,15,9.80
2011,08,11,01,16,9.90
2011,08,11,01,17,9.90
2011,08,11,01,18,9.90
2011,08,11,01,19,9.90
2011,08,11,01,20,9.90
2011,08,11,01,21,9.90
2011,08,11,01,22,9.90
2011,08,11,01,23,9.90
2011,08,11,01,24,9.90
2011,08,11,01,25,9.90
2011,08,11,01,26,9.90
2011,08,11,01,27,9.90
2011,08,11,01,28,10.00
2011,08,11,01,29,10.10
2011,08,11,01,30,10.10
2011,08,11,01,31,10.10
2011,08,11,01,32,10.10
2011,08,11,01,33,10.10
2011,08,11,01,34,10.10
2011,08,11,01,35,10.10
2011,08,11,01,36,10.10
2011,08,11,01,37,10.20
2011,08,11,01,38,10.20
2011,08,11,01,39,10.20
2011,08,11,01,40,10.30
2011,08,11,01,41,10.30
2011,08,11,01,42,10.30
2011,08,11,01,43,10.30
2011,08,11,01,44,10.40
2011,08,11,01,45,10.40
2011,08,11,01,46,10.40
2011,08,11,01,47,10.40
2011,08,11,01,48,10.40
2011,08,11,01,49,10.40
2011,08,11,01,50,10.40
2011,08,11,01,51,10.40
2011,08,11,01,52,10.40
2011,08,11,01,53,10.40
2011,08,11,01,54,10.40
2011,08,11,01,55,10.40
2011,08,11,01,56,10.40
2011,08,11,01,57,10.40
2011,08,11,01,58,10.40
2011,08,11,01,59,10.40
2011,08,11,02,00,10.40
2011,08,11,02,01,10.40
2011,08,11,02,02,10.40
2011,08,11,02,03,10.40
2011,08,11,02,04,10.40
2011,08,11,02,05,10.40
2011,08,11,02,06,10.40
2011,08,11,02,07,10.40
2011,08,11,02,08,10.40
2011,08,11,02,09,10.40
2011,08,11,02,10,10.40
2011,08,11,02,11,10.40
2011,08,11,02,12,10.40
2011,08,11,02,13,10.40
2011,08,11,02,14,10.40
2011,08,11,02,15,10.40
2011,08,11,02,16,10.40
2011,08,11,02,17,10.40
2011,08,11,02,18,10.40
2011,08,11,02,19,10.40
2011,08,11,02,20,10.50
2011,08,11,02,21,10.60
2011,08,11,02,22,10.60
2011,08,11,02,23,10.60
2011,08,11,02,24,10.60
2011,08,11,02,25,10.60
2011,08,11,02,26,10.60
2011,08,11,02,27,10.60
2011,08,11,02,28,10.60
2011,08,11,02,29,10.50
2011,08,11,02,30,10.40
2011,08,11,02,31,10.40
2011,08,11,02,32,10.40
2011,08,11,02,33,10.40
2011,08,11,02,34,10.40
2011,08,11,02,35,10.30
2011,08,11,02,36,10.30
2011,08,11,02,37,10.20
2011,08,11,02,38,10.20
2011,08,11,02,39,10.20
2011,08,11,02,40,10.10
2011,08,11,02,41,10.10
2011,08,11,02,42,10.10
2011,08,11,02,43,10.10
2011,08,11,02,44,10.00
2011,08,11,02,45,9.90
2011,08,11,02,46,9.90
2011,08,11,02,47,9.80
2011,08,11,02,48,9.80
2011,08,11,02,49,9.70
2011,08,11,02,50,9.70
2011,08,11,02,51,9.70
2011,08,11,02,52,9.70
2011,08,11,02,53,9.60
2011,08,11,02,54,9.60
2011,08,11,02,55,9.50
2011,08,11,02,56,9.50
2011,08,11,02,57,9.40
2011,08,11,02,58,9.40
2011,08,11,02,59,9.40
2011,08,11,03,00,9.40
2011,08,11,03,01,9.40
2011,08,11,03,02,9.30
2011,08,11,03,03,9.30
2011,08,11,03,04,9.30
2011,08,11,03,05,9.30
2011,08,11,03,06,9.30
2011,08,11,03,07,9.30
2011,08,11,03,08,9.20
2011,08,11,03,09,9.20
2011,08,11,03,10,9.20
2011,08,11,03,11,9.20
2011,08,11,03,12,9.20
2011,08,11,03,13,9.20
2011,08,11,03,14,9.20
2011,08,11,03,15,9.20
2011,08,11,03,16,9.20
2011,08,11,03,17,9.20
2011,08,11,03,18,9.20
2011,08,11,03,19,9.20
2011,08,11,03,20,9.20
2011,08,11,03,21,9.10
2011,08,11,03,22,9.10
2011,08,11,03,23,9.10
2011,08,11,03,24,9.10
2011,08,11,03,25,9.10
2011,08,11,03,26,9.10
2011,08,11,03,27,9.00
2011,08,11,03,28,9.00
2011,08,11,03,29,9.00
2011,08,11,03,30,9.00
2011,08,11,03,31,9.00
2011,08,11,03,32,9.00
2011,08,11,03,33,9.00
2011,08,11,03,34,9.00
2011,08,11,03,35,8.90
2011,08,11,03,36,8.90
2011,08,11,03,37,8.90
2011,08,11,03,38,8.90
2011,08,11,03,39,8.90
2011,08,11,03,40,8.90
2011,08,11,03,41,8.90
2011,08,11,03,42,8.90
2011,08,11,03,43,8.90
2011,08,11,03,44,8.90
2011,08,11,03,45,8.90
2011,08,11,03,46,8.90
2011,08,11,03,47,8.90
2011,08,11,03,48,8.90
2011,08,11,03,49,8.90
2011,08,11,03,50,8.90
2011,08,11,03,51,8.90
2011,08,11,03,52,8.90
2011,08,11,03,53,8.90
2011,08,11,03,54,8.90
2011,08,11,03,55,8.90
2011,08,11,03,56,8.90
2011,08,11,03,57,8.90
2011,08,11,03,58,8.90
2011,08,11,03,59,8.90
2011,08,11,04,00,8.90
2011,08,11,04,01,8.90
2011,08,11,04,02,8.90
2011,08,11,04,03,8.80
2011,08,11,04,04,8.80
2011,08,11,04,05,8.80
2011,08,11,04,06,8.80
2011,08,11,04,07,8.80
2011,08,11,04,08,8.80
2011,08,11,04,09,8.80
2011,08,11,04,10,8.80
2011,08,11,04,11,8.80
2011,08,11,04,12,8.80
2011,08,11,04,13,8.80
2011,08,11,04,14,8.80
2011,08,11,04,15,8.80
2011,08,11,04,16,8.80
2011,08,11,04,17,8.80
2011,08,11,04,18,8.80
2011,08,11,04,19,8.80
2011,08,11,04,20,8.80
2011,08,11,04,21,8.80
2011,08,11,04,22,8.80
2011,08,11,04,23,8.80
2011,08,11,04,24,8.80
2011,08,11,04,25,8.80
2011,08,11,04,26,8.80
2011,08,11,04,27,8.70
2011,08,11,04,28,8.70
2011,08,11,04,29,8.70
2011,08,11,04,30,8.70
2011,08,11,04,31,8.70
2011,08,11,04,32,8.70
2011,08,11,04,33,8.70
2011,08,11,04,34,8.70
2011,08,11,04,35,8.70
2011,08,11,04,36,8.70
2011,08,11,04,37,8.70
2011,08,11,04,38,8.70
2011,08,11,04,39,8.70
2011,08,11,04,40,8.70
2011,08,11,04,41,8.70
2011,08,11,04,42,8.70
2011,08,11,04,43,8.70
2011,08,11,04,44,8.70
2011,08,11,04,45,8.70
2011,08,11,04,46,8.70
2011,08,11,04,47,8.70
2011,08,11,04,48,8.70
2011,08,11,04,49,8.70
2011,08,11,04,50,8.70
2011,08,11,04,51,8.70
2011,08,11,04,52,8.70
2011,08,11,04,53,8.70
2011,08,11,04,54,8.70
2011,08,11,04,55,8.70
2011,08,11,04,56,8.70
2011,08,11,04,57,8.70
2011,08,11,04,58,8.70
2011,08,11,04,59,8.70
2011,08,11,05,00,8.70
2011,08,11,05,01,8.70
2011,08,11,05,02,8.70
2011,08,11,05,03,8.70
2011,08,11,05,04,8.70
2011,08,11,05,05,8.70
2011,08,11,05,06,8.70
2011,08,11,05,07,8.70
2011,08,11,05,08,8.70
2011,08,11,05,09,8.70
2011,08,11,05,10,8.70
2011,08,11,05,11,8.70
2011,08,11,05,12,8.70
2011,08,11,05,13,8.70
2011,08,11,05,14,8.70
2011,08,11,05,15,8.70
2011,08,11,05,16,8.70
2011,08,11,05,17,8.70
2011,08,11,05,18,8.70
2011,08,11,05,19,8.70
2011,08,11,05,20,8.70
2011,08,11,05,21,8.70
2011,08,11,05,22,8.70
2011,08,11,05,23,8.70
2011,08,11,05,24,8.70
2011,08,11,05,25,8.70
2011,08,11,05,26,8.70
2011,08,11,05,27,8.70
2011,08,11,05,28,8.70
2011,08,11,05,29,8.70
2011,08,11,05,30,8.70
2011,08,11,05,31,8.70
2011,08,11,05,32,8.70
2011,08,11,05,33,8.70
2011,08,11,05,34,8.70
2011,08,11,05,35,8.70
2011,08,11,05,36,8.70
2011,08,11,05,37,8.70
2011,08,11,05,38,8.70
2011,08,11,05,39,8.70
2011,08,11,05,40,8.70
2011,08,11,05,41,8.70
2011,08,11,05,42,8.70
2011,08,11,05,43,8.70
2011,08,11,05,44,8.70
2011,08,11,05,45,8.70
2011,08,11,05,46,8.70
2011,08,11,05,47,8.70
2011,08,11,05,48,8.70
2011,08,11,05,49,8.70
2011,08,11,05,50,8.70
2011,08,11,05,51,8.70
2011,08,11,05,52,8.70
2011,08,11,05,53,8.70
2011,08,11,05,54,8.70
2011,08,11,05,55,8.70
2011,08,11,05,56,8.70
2011,08,11,05,57,8.70
2011,08,11,05,58,8.70
2011,08,11,05,59,8.70
2011,08,11,06,00,8.80
2011,08,11,06,01,8.80
2011,08,11,06,02,8.80
2011,08,11,06,03,8.80
2011,08,11,06,04,8.90
2011,08,11,06,05,8.90
2011,08,11,06,06,8.90
2011,08,11,06,07,8.90
2011,08,11,06,08,9.00
2011,08,11,06,09,9.00
2011,08,11,06,10,9.00
2011,08,11,06,11,9.10
2011,08,11,06,12,9.10
2011,08,11,06,13,9.10
2011,08,11,06,14,9.20
2011,08,11,06,15,9.20
2011,08,11,06,16,9.20
2011,08,11,06,17,9.20
2011,08,11,06,18,9.20
2011,08,11,06,19,9.20
2011,08,11,06,20,9.20
2011,08,11,06,21,9.30
2011,08,11,06,22,9.30
2011,08,11,06,23,9.30
2011,08,11,06,24,9.30
2011,08,11,06,25,9.30
2011,08,11,06,26,9.30
2011,08,11,06,27,9.30
2011,08,11,06,28,9.40
2011,08,11,06,29,9.40
2011,08,11,06,30,9.40
2011,08,11,06,31,9.40
2011,08,11,06,32,9.40
2011,08,11,06,33,9.40
2011,08,11,06,34,9.40
2011,08,11,06,35,9.40
2011,08,11,06,36,9.50
2011,08,11,06,37,9.50
2011,08,11,06,38,9.50
2011,08,11,06,39,9.50
2011,08,11,06,40,9.50
2011,08,11,06,41,9.50
2011,08,11,06,42,9.50
2011,08,11,06,43,9.60
2011,08,11,06,44,9.60
2011,08,11,06,45,9.60
2011,08,11,06,46,9.60
2011,08,11,06,47,9.60
2011,08,11,06,48,9.60
2011,08,11,06,49,9.60
2011,08,11,06,50,9.70
2011,08,11,06,51,9.70
2011,08,11,06,52,9.70
2011,08,11,06,53,9.70
2011,08,11,06,54,9.70
2011,08,11,06,55,9.70
2011,08,11,06,56,9.70
2011,08,11,06,57,9.80
2011,08,11,06,58,9.80
2011,08,11,06,59,9.90
2011,08,11,07,00,9.90
2011,08,11,07,01,9.90
2011,08,11,07,02,9.90
2011,08,11,07,03,9.90
2011,08,11,07,04,10.10
2011,08,11,07,05,10.10
2011,08,11,07,06,10.10
2011,08,11,07,07,10.10
2011,08,11,07,08,10.20
2011,08,11,07,09,10.20
2011,08,11,07,10,10.30
2011,08,11,07,11,10.30
2011,08,11,07,12,10.40
2011,08,11,07,13,10.40
2011,08,11,07,14,10.40
2011,08,11,07,15,10.50
2011,08,11,07,16,10.60
2011,08,11,07,17,10.60
2011,08,11,07,18,10.70
2011,08,11,07,19,10.70
2011,08,11,07,20,10.80
2011,08,11,07,21,10.80
2011,08,11,07,22,10.90
2011,08,11,07,23,10.90
2011,08,11,07,24,10.90
2011,08,11,07,25,11.00
2011,08,11,07,26,11.10
2011,08,11,07,27,11.10
2011,08,11,07,28,11.20
2011,08,11,07,29,11.20
2011,08,11,07,30,11.30
2011,08,11,07,31,11.30
2011,08,11,07,32,11.30
2011,08,11,07,33,11.40
2011,08,11,07,34,11.40
2011,08,11,07,35,11.40
2011,08,11,07,36,11.40
2011,08,11,07,37,11.40
2011,08,11,07,38,11.40
2011,08,11,07,39,11.50
2011,08,11,07,40,11.60
2011,08,11,07,41,11.60
2011,08,11,07,42,11.60
2011,08,11,07,43,11.60
2011,08,11,07,44,11.60
2011,08,11,07,45,11.60
2011,08,11,07,46,11.60
2011,08,11,07,47,11.60
2011,08,11,07,48,11.60
2011,08,11,07,49,11.60
2011,08,11,07,50,11.70
2011,08,11,07,51,11.70
2011,08,11,07,52,11.70
2011,08,11,07,53,11.70
2011,08,11,07,54,11.80
2011,08,11,07,55,11.80
2011,08,11,07,56,11.80
2011,08,11,07,57,11.80
2011,08,11,07,58,11.80
2011,08,11,07,59,11.80
2011,08,11,08,00,11.90
2011,08,11,08,01,11.90
2011,08,11,08,02,11.90
2011,08,11,08,03,12.00
2011,08,11,08,04,12.00
2011,08,11,08,05,12.10
2011,08,11,08,06,12.10
2011,08,11,08,07,12.10
2011,08,11,08,08,12.20
2011,08,11,08,09,12.30
2011,08,11,08,10,12.30
2011,08,11,08,11,12.40
2011,08,11,08,12,12.50
2011,08,11,08,13,12.50
2011,08,11,08,14,12.60
2011,08,11,08,15,12.60
2011,08,11,08,16,12.70
2011,08,11,08,17,12.80
2011,08,11,08,18,12.80
2011,08,11,08,19,12.80
2011,08,11,08,20,12.90
2011,08,11,08,21,12.90
2011,08,11,08,22,13.00
2011,08,11,08,23,13.10
2011,08,11,08,24,13.10
2011,08,11,08,25,13.20
2011,08,11,08,26,13.20
2011,08,11,08,27,13.30
2011,08,11,08,28,13.30
2011,08,11,08,29,13.40
2011,08,11,08,30,13.50
2011,08,11,08,31,13.50
2011,08,11,08,32,13.60
2011,08,11,08,33,13.60
2011,08,11,08,34,13.70
2011,08,11,08,35,13.70
2011,08,11,08,36,13.70
2011,08,11,08,37,13.80
2011,08,11,08,38,13.90
2011,08,11,08,39,13.90
2011,08,11,08,40,14.00
2011,08,11,08,41,14.00
2011,08,11,08,42,14.10
2011,08,11,08,43,14.10
2011,08,11,08,44,14.20
2011,08,11,08,45,14.20
2011,08,11,08,46,14.20
2011,08,11,08,47,14.30
2011,08,11,08,48,14.30
2011,08,11,08,49,14.30
2011,08,11,08,50,14.40
2011,08,11,08,51,14.50
2011,08,11,08,52,14.50
2011,08,11,08,53,14.60
2011,08,11,08,54,14.60
2011,08,11,08,55,14.70
2011,08,11,08,56,14.70
2011,08,11,08,57,14.80
2011,08,11,08,58,14.80
2011,08,11,08,59,14.90
2011,08,11,09,00,15.00
2011,08,11,09,01,15.00
2011,08,11,09,02,15.00
2011,08,11,09,03,15.10
2011,08,11,09,04,15.20
2011,08,11,09,05,15.30
2011,08,11,09,06,15.30
2011,08,11,09,07,15.40
2011,08,11,09,08,15.40
2011,08,11,09,09,15.50
2011,08,11,09,10,15.50
2011,08,11,09,11,15.60
2011,08,11,09,12,15.60
2011,08,11,09,13,15.60
2011,08,11,09,14,15.60
2011,08,11,09,15,15.60
2011,08,11,09,16,15.60
2011,08,11,09,17,15.60
2011,08,11,09,18,15.60
2011,08,11,09,19,15.70
2011,08,11,09,20,15.70
2011,08,11,09,21,15.80
2011,08,11,09,22,15.80
2011,08,11,09,23,15.80
2011,08,11,09,24,15.80
2011,08,11,09,25,15.90
2011,08,11,09,26,15.90
2011,08,11,09,27,16.00
2011,08,11,09,28,16.10
2011,08,11,09,29,16.10
2011,08,11,09,30,16.10
2011,08,11,09,31,16.10
2011,08,11,09,32,16.20
2011,08,11,09,33,16.20
2011,08,11,09,34,16.20
2011,08,11,09,35,16.30
2011,08,11,09,36,16.30
2011,08,11,09,37,16.30
2011,08,11,09,38,16.40
2011,08,11,09,39,16.40
2011,08,11,09,40,16.40
2011,08,11,09,41,16.50
2011,08,11,09,42,16.60
2011,08,11,09,43,16.70
2011,08,11,09,44,16.70
2011,08,11,09,45,16.80
2011,08,11,09,46,16.90
2011,08,11,09,47,17.00
2011,08,11,09,48,17.00
2011,08,11,09,49,17.10
2011,08,11,09,50,17.20
2011,08,11,09,51,17.30
2011,08,11,09,52,17.30
2011,08,11,09,53,17.30
2011,08,11,09,54,17.40
2011,08,11,09,55,17.50
2011,08,11,09,56,17.50
2011,08,11,09,57,17.70
2011,08,11,09,58,17.80
2011,08,11,09,59,17.90
2011,08,11,10,00,17.90
2011,08,11,10,01,18.10
2011,08,11,10,02,18.20
2011,08,11,10,03,18.20
2011,08,11,10,04,18.30
2011,08,11,10,05,18.30
2011,08,11,10,06,18.40
2011,08,11,10,07,18.40
2011,08,11,10,08,18.50
2011,08,11,10,09,18.50
2011,08,11,10,10,18.50
2011,08,11,10,11,18.50
2011,08,11,10,12,18.60
2011,08,11,10,13,18.60
2011,08,11,10,14,18.60
2011,08,11,10,15,18.60
2011,08,11,10,16,18.70
2011,08,11,10,17,18.70
2011,08,11,10,18,18.80
2011,08,11,10,19,18.90
2011,08,11,10,20,19.00
2011,08,11,10,21,19.10
2011,08,11,10,22,19.20
2011,08,11,10,23,19.20
2011,08,11,10,24,19.30
2011,08,11,10,25,19.30
2011,08,11,10,26,19.30
2011,08,11,10,27,19.40
2011,08,11,10,28,19.30
2011,08,11,10,29,19.30
2011,08,11,10,30,19.30
2011,08,11,10,31,19.20
2011,08,11,10,32,19.20
2011,08,11,10,33,19.20
2011,08,11,10,34,19.10
2011,08,11,10,35,19.10
2011,08,11,10,36,19.10
2011,08,11,10,37,19.10
2011,08,11,10,38,19.10
2011,08,11,10,39,19.10
2011,08,11,10,40,19.10
2011,08,11,10,41,18.90
2011,08,11,10,42,18.90
2011,08,11,10,43,18.90
2011,08,11,10,44,18.80
2011,08,11,10,45,18.80
2011,08,11,10,46,18.70
2011,08,11,10,47,18.70
2011,08,11,10,48,18.60
2011,08,11,10,49,18.70
2011,08,11,10,50,18.70
2011,08,11,10,51,18.80
2011,08,11,10,52,18.80
2011,08,11,10,53,18.80
2011,08,11,10,54,18.90
2011,08,11,10,55,18.90
2011,08,11,10,56,19.00
2011,08,11,10,57,19.00
2011,08,11,10,58,19.00
2011,08,11,10,59,18.90
2011,08,11,11,00,18.90
2011,08,11,11,01,19.00
2011,08,11,11,02,19.10
2011,08,11,11,03,19.10
2011,08,11,11,04,19.10
2011,08,11,11,05,19.10
2011,08,11,11,06,19.10
2011,08,11,11,07,19.10
2011,08,11,11,08,19.10
2011,08,11,11,09,19.20
2011,08,11,11,10,19.30
2011,08,11,11,11,19.30
2011,08,11,11,12,19.30
2011,08,11,11,13,19.30
2011,08,11,11,14,19.30
2011,08,11,11,15,19.30
2011,08,11,11,16,19.20
2011,08,11,11,17,19.10
2011,08,11,11,18,19.10
2011,08,11,11,19,19.10
2011,08,11,11,20,19.10
2011,08,11,11,21,19.00
2011,08,11,11,22,19.10
2011,08,11,11,23,19.10
2011,08,11,11,24,19.10
2011,08,11,11,25,19.10
2011,08,11,11,26,19.10
2011,08,11,11,27,19.20
2011,08,11,11,28,19.20
2011,08,11,11,29,19.30
2011,08,11,11,30,19.30
2011,08,11,11,31,19.40
2011,08,11,11,32,19.40
2011,08,11,11,33,19.50
2011,08,11,11,34,19.60
2011,08,11,11,35,19.60
2011,08,11,11,36,19.70
2011,08,11,11,37,19.70
2011,08,11,11,38,19.70
2011,08,11,11,39,19.70
2011,08,11,11,40,19.70
2011,08,11,11,41,19.60
2011,08,11,11,42,19.70
2011,08,11,11,43,19.70
2011,08,11,11,44,19.70
2011,08,11,11,45,19.80
2011,08,11,11,46,19.90
2011,08,11,11,47,20.00
2011,08,11,11,48,20.10
2011,08,11,11,49,20.20
2011,08,11,11,50,20.20
2011,08,11,11,51,20.20
2011,08,11,11,52,20.20
2011,08,11,11,53,20.20
2011,08,11,11,54,20.20
2011,08,11,11,55,20.20
2011,08,11,11,56,20.20
2011,08,11,11,57,20.20
2011,08,11,11,58,20.20
2011,08,11,11,59,20.00
2011,08,11,12,00,19.90
2011,08,11,12,01,19.90
2011,08,11,12,02,19.80
2011,08,11,12,03,19.70
2011,08,11,12,04,19.70
2011,08,11,12,05,19.80
2011,08,11,12,06,19.80
2011,08,11,12,07,19.90
2011,08,11,12,08,19.90
2011,08,11,12,09,20.00
2011,08,11,12,10,20.10
2011,08,11,12,11,20.10
2011,08,11,12,12,20.10
2011,08,11,12,13,20.10
2011,08,11,12,14,20.10
2011,08,11,12,15,20.10
2011,08,11,12,16,20.10
2011,08,11,12,17,20.10
2011,08,11,12,18,20.10
2011,08,11,12,19,20.20
2011,08,11,12,20,20.20
2011,08,11,12,21,20.20
2011,08,11,12,22,20.20
2011,08,11,12,23,20.20
2011,08,11,12,24,20.20
2011,08,11,12,25,20.20
2011,08,11,12,26,20.20
2011,08,11,12,27,20.20
2011,08,11,12,28,20.30
2011,08,11,12,29,20.40
2011,08,11,12,30,20.50
2011,08,11,12,31,20.60
2011,08,11,12,32,20.60
2011,08,11,12,33,20.70
2011,08,11,12,34,20.80
2011,08,11,12,35,20.80
2011,08,11,12,36,20.80
2011,08,11,12,37,20.80
2011,08,11,12,38,21.00
2011,08,11,12,39,21.00
2011,08,11,12,40,21.10
2011,08,11,12,41,21.10
2011,08,11,12,42,21.00
2011,08,11,12,43,21.00
2011,08,11,12,44,21.00
2011,08,11,12,45,21.00
2011,08,11,12,46,21.10
2011,08,11,12,47,21.20
2011,08,11,12,48,21.30
2011,08,11,12,49,21.30
2011,08,11,12,50,21.40
2011,08,11,12,51,21.60
2011,08,11,12,52,21.60
2011,08,11,12,53,21.80
2011,08,11,12,54,21.80
2011,08,11,12,55,21.90
2011,08,11,12,56,21.80
2011,08,11,12,57,21.80
2011,08,11,12,58,21.80
2011,08,11,12,59,21.80
2011,08,11,13,00,21.80
2011,08,11,13,01,21.80
2011,08,11,13,02,21.90
2011,08,11,13,03,21.90
2011,08,11,13,04,21.90
2011,08,11,13,05,22.00
2011,08,11,13,06,22.00
2011,08,11,13,07,22.00
2011,08,11,13,08,22.00
2011,08,11,13,09,21.90
2011,08,11,13,10,22.00
2011,08,11,13,11,22.00
2011,08,11,13,12,22.10
2011,08,11,13,13,22.10
2011,08,11,13,14,22.10
2011,08,11,13,15,22.10
2011,08,11,13,16,22.10
2011,08,11,13,17,22.10
2011,08,11,13,18,22.10
2011,08,11,13,19,22.10
2011,08,11,13,20,22.10
2011,08,11,13,21,22.20
2011,08,11,13,22,22.20
2011,08,11,13,23,22.20
2011,08,11,13,24,22.20
2011,08,11,13,25,22.20
2011,08,11,13,26,22.20
2011,08,11,13,27,22.20
2011,08,11,13,28,22.30
2011,08,11,13,29,22.30
2011,08,11,13,30,22.40
2011,08,11,13,31,22.40
2011,08,11,13,32,22.40
2011,08,11,13,33,22.40
2011,08,11,13,34,22.40
2011,08,11,13,35,22.40
2011,08,11,13,36,22.40
2011,08,11,13,37,22.40
2011,08,11,13,38,22.40
2011,08,11,13,39,22.40
2011,08,11,13,40,22.30
2011,08,11,13,41,22.30
2011,08,11,13,42,22.30
2011,08,11,13,43,22.30
2011,08,11,13,44,22.30
2011,08,11,13,45,22.20
2011,08,11,13,46,22.20
2011,08,11,13,47,22.30
2011,08,11,13,48,22.30
2011,08,11,13,49,22.30
2011,08,11,13,50,22.20
2011,08,11,13,51,22.20
2011,08,11,13,52,22.20
2011,08,11,13,53,22.20
2011,08,11,13,54,22.10
2011,08,11,13,55,22.10
2011,08,11,13,56,22.10
2011,08,11,13,57,22.00
2011,08,11,13,58,22.00
2011,08,11,13,59,21.90
2011,08,11,14,00,21.90
2011,08,11,14,01,22.00
2011,08,11,14,02,22.00
2011,08,11,14,03,22.10
2011,08,11,14,04,22.20
2011,08,11,14,05,22.20
2011,08,11,14,06,22.30
2011,08,11,14,07,22.30
2011,08,11,14,08,22.40
2011,08,11,14,09,22.50
2011,08,11,14,10,22.60
2011,08,11,14,11,22.70
2011,08,11,14,12,22.70
2011,08,11,14,13,22.70
2011,08,11,14,14,22.70
2011,08,11,14,15,22.60
2011,08,11,14,16,22.50
2011,08,11,14,17,22.50
2011,08,11,14,18,22.50
2011,08,11,14,19,22.50
2011,08,11,14,20,22.50
2011,08,11,14,21,22.40
2011,08,11,14,22,22.40
2011,08,11,14,23,22.30
2011,08,11,14,24,22.30
2011,08,11,14,25,22.20
2011,08,11,14,26,22.20
2011,08,11,14,27,22.30
2011,08,11,14,28,22.20
2011,08,11,14,29,22.30
2011,08,11,14,30,22.30
2011,08,11,14,31,22.30
2011,08,11,14,32,22.40
2011,08,11,14,33,22.40
2011,08,11,14,34,22.40
2011,08,11,14,35,22.40
2011,08,11,14,36,22.40
2011,08,11,14,37,22.40
2011,08,11,14,38,22.30
2011,08,11,14,39,22.30
2011,08,11,14,40,22.20
2011,08,11,14,41,22.20
2011,08,11,14,42,22.10
2011,08,11,14,43,22.10
2011,08,11,14,44,22.10
2011,08,11,14,45,22.10
2011,08,11,14,46,22.10
2011,08,11,14,47,22.10
2011,08,11,14,48,22.10
2011,08,11,14,49,22.20
2011,08,11,14,50,22.30
2011,08,11,14,51,22.30
2011,08,11,14,52,22.40
2011,08,11,14,53,22.40
2011,08,11,14,54,22.50
2011,08,11,14,55,22.60
2011,08,11,14,56,22.50
2011,08,11,14,57,22.40
2011,08,11,14,58,22.40
2011,08,11,14,59,22.40
2011,08,11,15,00,22.40
2011,08,11,15,01,22.50
2011,08,11,15,02,22.50
2011,08,11,15,03,22.60
2011,08,11,15,04,22.70
2011,08,11,15,05,22.70
2011,08,11,15,06,22.70
2011,08,11,15,07,22.70
2011,08,11,15,08,22.60
2011,08,11,15,09,22.60
2011,08,11,15,10,22.50
2011,08,11,15,11,22.40
2011,08,11,15,12,22.30
2011,08,11,15,13,22.30
2011,08,11,15,14,22.20
2011,08,11,15,15,22.10
2011,08,11,15,16,22.00
2011,08,11,15,17,22.00
2011,08,11,15,18,22.00
2011,08,11,15,19,22.00
2011,08,11,15,20,22.00
2011,08,11,15,21,22.00
2011,08,11,15,22,22.00
2011,08,11,15,23,22.10
2011,08,11,15,24,22.20
2011,08,11,15,25,22.20
2011,08,11,15,26,22.30
2011,08,11,15,27,22.30
2011,08,11,15,28,22.40
2011,08,11,15,29,22.40
2011,08,11,15,30,22.40
2011,08,11,15,31,22.40
2011,08,11,15,32,22.40
2011,08,11,15,33,22.20
2011,08,11,15,34,22.00
2011,08,11,15,35,21.70
2011,08,11,15,36,21.60
2011,08,11,15,37,21.60
2011,08,11,15,38,21.60
2011,08,11,15,39,21.60
2011,08,11,15,40,21.70
2011,08,11,15,41,21.90
2011,08,11,15,42,22.00
2011,08,11,15,43,22.10
2011,08,11,15,44,22.20
2011,08,11,15,45,22.20
2011,08,11,15,46,22.30
2011,08,11,15,47,22.30
2011,08,11,15,48,22.30
2011,08,11,15,49,22.30
2011,08,11,15,50,22.30
2011,08,11,15,51,22.30
2011,08,11,15,52,22.20
2011,08,11,15,53,22.20
2011,08,11,15,54,22.10
2011,08,11,15,55,22.10
2011,08,11,15,56,22.00
2011,08,11,15,57,22.00
2011,08,11,15,58,21.90
2011,08,11,15,59,21.90
2011,08,11,16,00,21.90
2011,08,11,16,01,21.90
2011,08,11,16,02,21.90
2011,08,11,16,03,21.80
2011,08,11,16,04,21.70
2011,08,11,16,05,21.70
2011,08,11,16,06,21.70
2011,08,11,16,07,21.60
2011,08,11,16,08,21.60
2011,08,11,16,09,21.60
2011,08,11,16,10,21.60
2011,08,11,16,11,21.60
2011,08,11,16,12,21.60
2011,08,11,16,13,21.60
2011,08,11,16,14,21.60
2011,08,11,16,15,21.60
2011,08,11,16,16,21.60
2011,08,11,16,17,21.50
2011,08,11,16,18,21.40
2011,08,11,16,19,21.30
2011,08,11,16,20,21.30
2011,08,11,16,21,21.30
2011,08,11,16,22,21.20
2011,08,11,16,23,21.10
2011,08,11,16,24,21.00
2011,08,11,16,25,20.90
2011,08,11,16,26,20.90
2011,08,11,16,27,20.80
2011,08,11,16,28,20.80
2011,08,11,16,29,20.70
2011,08,11,16,30,20.70
2011,08,11,16,31,20.70
2011,08,11,16,32,20.60
2011,08,11,16,33,20.60
2011,08,11,16,34,20.60
2011,08,11,16,35,20.60
2011,08,11,16,36,20.60
2011,08,11,16,37,20.60
2011,08,11,16,38,20.60
2011,08,11,16,39,20.60
2011,08,11,16,40,20.50
2011,08,11,16,41,20.50
2011,08,11,16,42,20.50
2011,08,11,16,43,20.50
2011,08,11,16,44,20.40
2011,08,11,16,45,20.40
2011,08,11,16,46,20.40
2011,08,11,16,47,20.30
2011,08,11,16,48,20.30
2011,08,11,16,49,20.30
2011,08,11,16,50,20.30
2011,08,11,16,51,20.20
2011,08,11,16,52,20.20
2011,08,11,16,53,20.20
2011,08,11,16,54,20.20
2011,08,11,16,55,20.20
2011,08,11,16,56,20.20
2011,08,11,16,57,20.20
2011,08,11,16,58,20.10
2011,08,11,16,59,20.10
2011,08,11,17,00,20.00
2011,08,11,17,01,19.90
2011,08,11,17,02,19.90
2011,08,11,17,03,19.90
2011,08,11,17,04,19.90
2011,08,11,17,05,19.90
2011,08,11,17,06,19.90
2011,08,11,17,07,19.90
2011,08,11,17,08,19.90
2011,08,11,17,09,19.90
2011,08,11,17,10,19.90
2011,08,11,17,11,19.90
2011,08,11,17,12,19.90
2011,08,11,17,13,19.90
2011,08,11,17,14,19.90
2011,08,11,17,15,19.90
2011,08,11,17,16,19.90
2011,08,11,17,17,19.90
2011,08,11,17,18,19.90
2011,08,11,17,19,19.90
2011,08,11,17,20,19.90
2011,08,11,17,21,19.90
2011,08,11,17,22,19.90
2011,08,11,17,23,19.90
2011,08,11,17,24,19.90
2011,08,11,17,25,19.80
2011,08,11,17,26,19.80
2011,08,11,17,27,19.80
2011,08,11,17,28,19.80
2011,08,11,17,29,19.80
2011,08,11,17,30,19.80
2011,08,11,17,31,19.80
2011,08,11,17,32,19.90